Regional Weather Roundup
Issued by NWS Green Bay, WI

Home | Current Version | Previous Version | Graphics & Text | Print | Product List | Glossary Off
Versions: 1 2 3 4 5 6 7 8 9 10 11 12 13 14 15 16 17 18 19 20 21 22 23 24 25 26 27 28 29 30 31 32 33 34 35 36 37 38 39 40 41 42 43 44 45 46 47 48 49 50

000
ASUS43 KGRB 240610
RWRGRB

NORTH-CENTRAL AND NORTHEAST WISCONSIN REGIONAL WEATHER ROUNDUP
NATIONAL WEATHER SERVICE GREEN BAY WI
1200 AM CST TUE JAN 24 2017

WIZ005-009-010>012-018-019-240700-
NORTH CENTRAL WISCONSIN

CITY           SKY/WX    TMP DP  RH WIND       PRES   REMARKS
IRONWOOD       NOT AVBL
MANITOWISH WTR CLOUDY    32  32 100 NW3       29.78S
ARBOR VITAE    FOG       37  36  96 CALM      29.78S VSB 1/2
EAGLE RIVER    FOG       33  33 100 W3        29.77S VSB 3/4
LAND O LAKES   FOG       34  34 100 CALM      29.78F VSB 1/2
RHINELANDER    CLOUDY    35  35 100 CALM      29.78S
PHILLIPS       CLOUDY    32  32 100 CALM      29.79S
ANTIGO         CLOUDY    33  33 100 NW5       29.78S
TOMAHAWK       FOG       33  32  97 CALM      29.80R VSB 1
MERRILL        CLOUDY    34  34 100 CALM        N/A
$$

WIZ013-073-240700-
NORTHEAST WISCONSIN

CITY           SKY/WX    TMP DP  RH WIND       PRES   REMARKS
IRON MOUNTAIN  CLOUDY    34  31  88 CALM      29.76F
MARINETTE      NOT AVBL
OCONTO         CLOUDY    35  34  99 CALM      29.79F VSB 1/2
$$

WIZ017-030-035>037-045-240700-
CENTRAL WISCONSIN

CITY           SKY/WX    TMP DP  RH WIND       PRES   REMARKS
MEDFORD        CLOUDY    32  31  96 NW5       29.79F
WAUSAU         CLOUDY    34  34 100 NW5       29.79R
MOSINEE        FOG       32  32 100 NW6       29.80S VSB 3/4
MARSHFIELD     CLOUDY    33  31  92 NW7       29.79F
WISC RAPIDS    CLOUDY    34  34 100 NW5       29.82S FOG
STEVENS POINT  FOG       32  32 100 NW3       29.81S VSB 1/2
WAUPACA        CLOUDY    37  35  95 CALM      29.81S FOG
SHAWANO        CLOUDY    35  33  93 CALM      29.80S
CLINTONVILLE   CLOUDY    34  34 100 W3        29.80S
WAUTOMA        CLOUDY    34  34 100 W5        29.82S FOG
$$

WIZ038-039-048-051-240700-
FOX VALLEY

CITY           SKY/WX    TMP DP  RH WIND       PRES   REMARKS
NWS GREEN BAY  CLOUDY    36  35  96 W3        29.80S
APPLETON       CLOUDY    32  32 100 W6        29.77F
OSHKOSH        CLOUDY    35  32  88 W7        29.79S
FOND DU LAC    CLOUDY    35  32  88 CALM      29.80S
$$

WIZ022-050-052-240700-
EAST CENTRAL WISCONSIN

CITY           SKY/WX    TMP DP  RH WIND       PRES   REMARKS
EPHRAIM        FOG       32  32 100 N5        29.77F VSB 1/4
WASHINGTON ISL FOG       32  32 100 CALM      29.77F VSB 1/2
STURGEON BAY   FOG       33  33 100 W3        29.79F VSB 1
MANITOWOC      CLOUDY    36  34  92 CALM      29.80S
SHEBOYGAN      CLOUDY    34  32  92 CALM      29.79F
$$

LMZ563-521-522-541>543-240700-
LAKESHORE

STATION/POSITION TIME  TEMP    WIND        PRES    VSBY  WAVE
                       AIR SEA DIR/SP/G                  HT/PER
                 (UTC) (F)     (DEG/KT/KT) (MB)    (MI)  (FT/S)
SHEBOYGAN LKSHOR 0600   36     270/  4/  4 1009.1F
KEWAUNEE LKSHORE 0548   35      CALM  /  3 1008.4F
NORTHPORT PIER   0540   33        CALM     1008.8F
SISTER BAY LKSHO 0535   33        CALM       N/A
MENOMINEE LKSHOR 0548   33     340/  4/  4 1008.2F
$$




USA.gov is the U.S. government's official web portal to all federal, state and local government web resources and services.